TimeCDT,TemperatureF,Dew PointF,Humidity,Sea Level PressureIn,VisibilityMPH,Wind Direction,Wind SpeedMPH,Gust SpeedMPH,PrecipitationIn,Events,Conditions,WindDirDegrees,DateUTC
12:15 AM,49.3,44.2,83,30.11,10.0,Calm,Calm,-,N/A,,Clear,0,2013-06-19 05:15:00
12:35 AM,49.3,44.2,83,30.12,10.0,Calm,Calm,-,N/A,,Clear,0,2013-06-19 05:35:00
12:55 AM,48.2,44.1,86,30.13,10.0,Calm,Calm,-,N/A,,Clear,0,2013-06-19 05:55:00
1:15 AM,47.3,43.7,87,30.13,10.0,Calm,Calm,-,N/A,,Clear,0,2013-06-19 06:15:00
1:35 AM,45.7,42.6,89,30.13,10.0,Calm,Calm,-,N/A,,Clear,0,2013-06-19 06:35:00
1:55 AM,45.7,43.0,90,30.12,10.0,Calm,Calm,-,N/A,,Clear,0,2013-06-19 06:55:00
2:15 AM,46.2,41.5,84,30.11,10.0,Calm,Calm,-,N/A,,Clear,0,2013-06-19 07:15:00
2:35 AM,40.8,38.3,91,30.12,10.0,Calm,Calm,-,N/A,,Clear,0,2013-06-19 07:35:00
2:55 AM,42.3,40.3,93,30.13,10.0,Calm,Calm,-,N/A,,Clear,0,2013-06-19 07:55:00
3:15 AM,40.3,38.5,93,30.14,10.0,Calm,Calm,-,N/A,,Clear,0,2013-06-19 08:15:00
3:35 AM,40.6,39.0,94,30.14,10.0,Calm,Calm,-,N/A,,Clear,0,2013-06-19 08:35:00
3:55 AM,40.3,38.7,94,30.14,10.0,Calm,Calm,-,N/A,,Clear,0,2013-06-19 08:55:00
4:15 AM,41.0,39.6,95,30.13,10.0,Calm,Calm,-,N/A,,Clear,0,2013-06-19 09:15:00
4:35 AM,38.7,37.0,94,30.13,10.0,Calm,Calm,-,N/A,,Clear,0,2013-06-19 09:35:00
4:55 AM,40.1,38.8,95,30.13,10.0,Calm,Calm,-,N/A,,Clear,0,2013-06-19 09:55:00
5:15 AM,37.9,36.3,94,30.13,10.0,Calm,Calm,-,N/A,,Clear,0,2013-06-19 10:15:00
5:35 AM,37.9,36.7,95,30.13,10.0,Calm,Calm,-,N/A,,Clear,0,2013-06-19 10:35:00
5:55 AM,39.0,37.6,95,30.14,10.0,Calm,Calm,-,N/A,,Clear,0,2013-06-19 10:55:00
6:15 AM,41.2,39.7,95,30.13,10.0,Calm,Calm,-,N/A,,Clear,0,2013-06-19 11:15:00
6:35 AM,45.0,43.7,95,30.14,10.0,Calm,Calm,-,N/A,,Scattered Clouds,0,2013-06-19 11:35:00
6:55 AM,48.9,46.0,90,30.15,10.0,Calm,Calm,-,N/A,,Scattered Clouds,0,2013-06-19 11:55:00
7:15 AM,52.9,45.3,75,30.15,10.0,Calm,Calm,-,N/A,,Mostly Cloudy,0,2013-06-19 12:15:00
7:35 AM,53.8,45.7,74,30.16,10.0,Calm,Calm,-,N/A,,Overcast,0,2013-06-19 12:35:00
7:55 AM,54.1,45.5,73,30.16,10.0,Calm,Calm,-,N/A,,Overcast,0,2013-06-19 12:55:00
8:15 AM,56.3,47.1,71,30.15,10.0,Calm,Calm,-,N/A,,Overcast,0,2013-06-19 13:15:00
8:35 AM,57.9,48.0,70,30.16,10.0,Calm,Calm,-,N/A,,Mostly Cloudy,0,2013-06-19 13:35:00
8:55 AM,59.7,45.5,59,30.15,10.0,SSE,4.6,-,N/A,,Mostly Cloudy,150,2013-06-19 13:55:00
9:15 AM,60.6,44.8,56,30.15,10.0,Calm,Calm,-,N/A,,Overcast,0,2013-06-19 14:15:00
9:35 AM,61.3,43.2,51,30.15,10.0,Calm,Calm,-,N/A,,Overcast,0,2013-06-19 14:35:00
9:55 AM,62.1,44.1,52,30.15,10.0,Calm,Calm,-,N/A,,Overcast,0,2013-06-19 14:55:00
10:15 AM,65.1,45.0,48,30.14,10.0,South,4.6,-,N/A,,Mostly Cloudy,190,2013-06-19 15:15:00
10:35 AM,64.9,44.1,47,30.14,10.0,SSE,3.5,-,N/A,,Mostly Cloudy,160,2013-06-19 15:35:00
10:55 AM,66.9,45.1,45,30.14,10.0,Calm,Calm,-,N/A,,Scattered Clouds,0,2013-06-19 15:55:00
11:15 AM,67.1,46.2,47,30.14,10.0,SSE,3.5,-,N/A,,Mostly Cloudy,150,2013-06-19 16:15:00
11:35 AM,65.1,43.7,46,30.14,10.0,South,3.5,-,N/A,,Overcast,190,2013-06-19 16:35:00
11:55 AM,64.4,45.7,51,30.14,10.0,Calm,Calm,-,N/A,,Overcast,0,2013-06-19 16:55:00
12:15 PM,68.7,48.7,49,30.13,10.0,SSE,5.8,-,N/A,,Scattered Clouds,160,2013-06-19 17:15:00
12:35 PM,69.1,48.6,48,30.12,10.0,SE,3.5,-,N/A,,Clear,130,2013-06-19 17:35:00
12:55 PM,69.8,49.8,49,30.11,10.0,South,5.8,-,N/A,,Scattered Clouds,170,2013-06-19 17:55:00
1:15 PM,70.3,49.1,47,30.11,10.0,SSE,4.6,-,N/A,,Scattered Clouds,150,2013-06-19 18:15:00
1:35 PM,70.7,49.6,47,30.10,10.0,South,4.6,-,N/A,,Scattered Clouds,190,2013-06-19 18:35:00
1:55 PM,72.1,51.6,48,30.09,10.0,South,3.5,-,N/A,,Scattered Clouds,190,2013-06-19 18:55:00
2:15 PM,71.1,50.4,48,30.09,10.0,SSW,3.5,-,N/A,,Scattered Clouds,210,2013-06-19 19:15:00
2:35 PM,71.8,50.7,47,30.09,10.0,SSW,5.8,-,N/A,,Clear,200,2013-06-19 19:35:00
2:55 PM,72.9,53.2,50,30.08,10.0,South,3.5,-,N/A,,Scattered Clouds,180,2013-06-19 19:55:00
3:15 PM,72.1,53.4,52,30.08,10.0,South,3.5,-,N/A,,Mostly Cloudy,180,2013-06-19 20:15:00
3:35 PM,70.2,54.1,57,30.08,10.0,SSE,3.5,-,N/A,,Overcast,160,2013-06-19 20:35:00
3:55 PM,69.1,53.4,57,30.07,10.0,Calm,Calm,-,N/A,,Overcast,0,2013-06-19 20:55:00
4:15 PM,70.7,54.1,56,30.07,10.0,Calm,Calm,-,N/A,,Overcast,0,2013-06-19 21:15:00
4:35 PM,70.7,53.8,55,30.07,10.0,SW,3.5,-,N/A,,Overcast,230,2013-06-19 21:35:00
4:55 PM,71.2,53.6,54,30.07,10.0,SW,5.8,-,N/A,,Mostly Cloudy,230,2013-06-19 21:55:00
5:15 PM,70.9,55.4,58,30.06,10.0,Calm,Calm,-,N/A,,Mostly Cloudy,0,2013-06-19 22:15:00
5:35 PM,73.6,53.2,49,30.06,10.0,West,5.8,-,N/A,,Mostly Cloudy,260,2013-06-19 22:35:00
5:55 PM,72.9,52.5,49,30.05,10.0,WSW,6.9,-,N/A,,Scattered Clouds,250,2013-06-19 22:55:00
6:15 PM,73.0,54.3,52,30.05,10.0,SW,3.5,-,N/A,,Scattered Clouds,230,2013-06-19 23:15:00
6:35 PM,72.5,53.1,50,30.06,10.0,SSW,3.5,-,N/A,,Scattered Clouds,200,2013-06-19 23:35:00
6:55 PM,72.3,55.0,54,30.05,10.0,Calm,Calm,-,N/A,,Clear,0,2013-06-19 23:55:00
7:15 PM,71.8,54.3,54,30.05,10.0,Calm,Calm,-,N/A,,Clear,0,2013-06-20 00:15:00
7:35 PM,70.7,54.3,56,30.05,10.0,Calm,Calm,-,N/A,,Clear,0,2013-06-20 00:35:00
7:55 PM,69.3,55.4,61,30.06,10.0,Calm,Calm,-,N/A,,Clear,0,2013-06-20 00:55:00
8:15 PM,67.1,55.6,66,30.06,10.0,Calm,Calm,-,N/A,,Clear,0,2013-06-20 01:15:00
8:35 PM,64.2,55.6,73,30.06,10.0,Calm,Calm,-,N/A,,Clear,0,2013-06-20 01:35:00
8:55 PM,61.3,55.8,82,30.06,10.0,Calm,Calm,-,N/A,,Clear,0,2013-06-20 01:55:00
9:15 PM,61.0,55.6,82,30.07,10.0,Calm,Calm,-,N/A,,Clear,0,2013-06-20 02:15:00
9:35 PM,60.1,55.2,84,30.07,10.0,Calm,Calm,-,N/A,,Clear,0,2013-06-20 02:35:00
9:55 PM,59.0,54.7,86,30.07,10.0,Calm,Calm,-,N/A,,Clear,0,2013-06-20 02:55:00
10:15 PM,57.9,54.3,88,30.08,10.0,Calm,Calm,-,N/A,,Clear,0,2013-06-20 03:15:00
10:35 PM,57.2,54.1,89,30.08,10.0,Calm,Calm,-,N/A,,Clear,0,2013-06-20 03:35:00
10:55 PM,56.8,53.8,89,30.08,10.0,Calm,Calm,-,N/A,,Clear,0,2013-06-20 03:55:00
11:15 PM,56.5,54.0,91,30.08,10.0,Calm,Calm,-,N/A,,Clear,0,2013-06-20 04:15:00
11:35 PM,55.8,53.2,91,30.08,10.0,Calm,Calm,-,N/A,,Clear,0,2013-06-20 04:35:00
11:55 PM,55.2,53.2,93,30.09,10.0,Calm,Calm,-,N/A,,Clear,0,2013-06-20 04:55:00